Merida, Mexico

4:58 PM CDT on April 21, 2018 (GMT -0500)
Lic Manuel Crecencio Rejon

Weather History for MMMD - May, 2014

Change the Weather History Date:

Monday, May 12, 2014

  Actual Average Record
Temperature  
Mean Temperature 87 °F -  
Max Temperature 101 °F 96 °F 107 °F (1998)
Min Temperature 73 °F 73 °F 71 °F (1997)
Cooling Degree Days 22    
Growing Degree Days 37 (Base 50)    
Moisture  
Dew Point 65 °F    
Average Humidity 54    
Maximum Humidity 89    
Minimum Humidity 23    
Precipitation  
Precipitation 0.00 in - - ()
Sea Level Pressure  
Sea Level Pressure 29.86 in    
Wind  
Wind Speed 12 mph ()    
Max Wind Speed 22 mph    
Max Gust Speed 33 mph    
Visibility 6.4 miles    
Events      
Averages and records for this station are not official NWS values.
T = Trace of Precipitation, MM = Missing Value Source: Averaged Metar Reports

Daily Weather History Graph

Daily Weather History Graph

Search for Another Location

Airport or City:

Astronomy

May. 12, 2014 Rise Set
Actual Time 6:22 AM CDT 7:27 PM CDT
Civil Twilight 5:58 AM CDT 7:51 PM CDT
Nautical Twilight 5:30 AM CDT 8:19 PM CDT
Astronomical Twilight 5:01 AM CDT 8:48 PM CDT
Moon 5:40 PM CDT (5/12) 4:42 AM CDT (5/12)
Length of Visible Light 13h 53m
Length of Day
13h 05m
Waxing Gibbous, 95% of the Moon is Illuminated
May 12
Waxing Gibbous
May 14
Full
May 21
Last Quarter
May 28
New
Jun 5
First Quarter

Hourly Weather History & Observations

Time (CDT) Temp. Heat Index Dew Point Humidity Pressure Visibility Wind Dir Wind Speed Gust Speed Precip Events Conditions
12:47 AM 78.8 °F - 68.0 °F 69% 29.91 in 7.0 mi ESE 8.1 mph - N/A   Clear
12:50 AM - - - % 29.90 in 3 mi SE 6.7 mph - -  
1:53 AM 78.8 °F - 69.8 °F 74% 29.88 in 7.0 mi East 12.7 mph - N/A   Clear
2:53 AM 77.0 °F - 69.8 °F 78% 29.85 in 7.0 mi East 10.4 mph - N/A   Clear
3:50 AM 77 °F - 73 °F 83% 29.85 in 3 mi ESE 8.9 mph - -  
3:54 AM 75.2 °F - 69.8 °F 83% 29.88 in 7.0 mi East 12.7 mph - N/A   Clear
4:53 AM 75.2 °F - 69.8 °F 83% 29.85 in 7.0 mi East 9.2 mph - N/A   Clear
5:50 AM 73.4 °F - 69.8 °F 88% 29.86 in 7.0 mi East 11.5 mph - N/A   Clear
6:50 AM 75 °F - 72 °F 89% 29.89 in 6 mi SSE 6.7 mph - -   Clear
6:53 AM 73.4 °F - 69.8 °F 88% 29.90 in 7.0 mi East 12.7 mph - N/A   Mostly Cloudy
7:49 AM 77.0 °F - 69.8 °F 78% 29.89 in 5.0 mi East 16.1 mph - N/A   Mostly Cloudy
8:45 AM 80.6 °F 83.9 °F 69.8 °F 70% 29.90 in 6.0 mi SE 21.9 mph - N/A   Mostly Cloudy
9:48 AM 84.2 °F 87.3 °F 68.0 °F 58% 29.88 in 7.0 mi ESE 19.6 mph 31.1 mph N/A   Mostly Cloudy
9:50 AM 86 °F - 73 °F 56% 29.93 in 6 mi SSE 11.2 mph - -   Partly Cloudy
10:48 AM 89.6 °F 91.1 °F 64.4 °F 43% 29.91 in 7.0 mi SE 21.9 mph 33.4 mph N/A   Mostly Cloudy
11:50 AM 91.4 °F 91.4 °F 60.8 °F 36% 29.89 in 7.0 mi SSE 17.3 mph 28.8 mph N/A   Mostly Cloudy
12:46 PM 93.2 °F 92.6 °F 59.0 °F 32% 29.88 in 7.0 mi ESE 18.4 mph 29.9 mph N/A   Mostly Cloudy
12:50 PM 94 °F - 69 °F 34% 29.88 in 6 mi SSE 11.2 mph - -   Scattered Clouds
1:44 PM 93.2 °F 91.9 °F 57.2 °F 30% 29.85 in 7.0 mi SE 15.0 mph 26.5 mph N/A   Mostly Cloudy
2:40 PM 93.2 °F 96.2 °F 66.2 °F 41% 29.87 in 8.0 mi ESE 15.0 mph - N/A   Mostly Cloudy
2:47 PM 96.8 °F 95.8 °F 57.2 °F 27% 29.82 in 7.0 mi ESE 16.1 mph - N/A   Mostly Cloudy
3:48 PM 96.8 °F 95.1 °F 55.4 °F 25% 29.83 in 7.0 mi SSE 13.8 mph 25.3 mph N/A   Mostly Cloudy
3:50 PM 98 °F - 65 °F 25% 29.81 in 6 mi SSE 8.9 mph - -   Partly Cloudy
4:53 PM 96.8 °F 94.4 °F 53.6 °F 23% 29.78 in 7.0 mi SE 13.8 mph - N/A   Scattered Clouds
5:44 PM 95.0 °F 93.7 °F 57.2 °F 28% 29.77 in 7.0 mi ESE 19.6 mph - N/A   Scattered Clouds
6:50 PM 93 °F - 66 °F 32% 29.81 in 3 mi ESE 11.2 mph - -   Scattered Clouds
6:52 PM 93.2 °F 92.6 °F 59.0 °F 32% 29.78 in 7.0 mi ESE 15.0 mph 26.5 mph N/A   Scattered Clouds
7:42 PM 89.6 °F 89.5 °F 60.8 °F 38% 29.80 in 7.0 mi ESE 17.3 mph - N/A   Partly Cloudy
8:49 PM 87.8 °F 88.5 °F 62.6 °F 43% 29.83 in 7.0 mi ESE 18.4 mph - N/A   Partly Cloudy
9:51 PM 84.2 °F 86.6 °F 66.2 °F 55% 29.86 in 7.0 mi ESE 20.7 mph - N/A   Clear
10:45 PM 82.4 °F 84.6 °F 66.2 °F 58% 29.88 in 7.0 mi ESE 15.0 mph - N/A   Clear
11:43 PM 80.6 °F 83.2 °F 68.0 °F 65% 29.89 in 7.0 mi ESE 17.3 mph - N/A   Clear